[[{"header":{"parameterUnit":"m.s-1","parameterCategory":1,"la1":30.2991,"la2":30.254,"lo1":-89.0895,"lo2":-89.0444,"dy":0.0017,"dx":0.0017,"nx":28,"ny":28,"refTime":"2024-04-27T09:00:00:Z","depth":0,"parameterNumber":2,"parameterNumberName":"U-component_of_WINDS"},"data":[0,0,0,0,0,0,0,0,0,0,0,0,0,0,0,0,0,0,0,0,0,0,0,0,0,0,0,0,0,0,0,0,0,0,0,0,0,0,0,0,0,0,0,0,0,0,0,0,0,0,0,0,0,0,0,0,0,0,-8.4908,-8.4908,0,-8.4984,-8.4985,-8.4985,-8.4924,-8.4921,-8.4918,-8.4916,-8.4989,-8.4993,-8.4997,0,0,0,0,0,0,0,0,0,0,0,0,0,-8.4706,-8.471,-8.4907,-8.4908,-8.4909,-8.4984,-8.4985,-8.4986,-8.4924,-8.4921,-8.4918,-8.4915,-8.4987,-8.4993,-8.4998,0,0,0,0,0,0,0,0,0,0,0,0,0,-8.4789,-8.4712,-8.4907,-8.4888,-8.4887,-8.4983,-8.4985,-8.4986,-8.4925,-8.4921,-8.4917,-8.4913,-8.4986,-8.4992,-8.4999,-8.5117,0,0,-8.5018,-8.5021,0,0,0,0,0,0,0,0,-8.4784,-8.4796,-8.489,-8.4889,-8.4888,-8.494,-8.494,-8.503,-8.4926,-8.491,-8.4916,-8.4911,-8.4976,-8.4983,-8.5005,-8.512,-8.5123,-8.5019,-8.5023,-8.5026,-8.5028,0,0,0,0,0,0,0,-8.4779,-8.4793,-8.4937,-8.4891,-8.489,-8.4874,-8.4882,-8.4957,-8.4964,-8.4911,-8.4907,-8.4917,-8.4974,-8.4999,-8.5007,-8.5124,-8.5019,-8.5025,-8.5029,-8.5031,-8.5341,-8.5345,0,0,0,0,0,0,-8.4775,-8.4788,-8.4935,-8.494,-8.4826,-8.4881,-8.489,-8.4927,-8.4963,-8.4964,-8.492,-8.4914,-8.499,-8.4999,-8.5009,-8.5149,-8.5026,-8.5032,-8.5036,-8.5337,-8.5342,-8.5347,0,0,0,0,0,0,-8.4771,-8.4789,-8.4932,-8.4863,-8.488,-8.4889,-8.4932,-8.4931,-8.4956,-8.497,-8.497,-8.4945,-8.4987,-8.5,-8.5091,-8.515,-8.5035,-8.5041,-8.5332,-8.5338,-8.5344,-8.543,0,0,0,0,0,0,-8.4766,-8.4788,-8.4833,-8.4865,-8.4884,-8.5013,-8.4936,-8.4935,-8.4968,-8.496,-8.4992,-8.4994,-8.4985,-8.5082,-8.5097,-8.5157,-8.5046,-8.5326,-8.5335,-8.5342,-8.5422,-8.5438,-8.5453,0,0,0,0,0,-8.4759,-8.4853,-8.4836,-8.4854,-8.4941,-8.5017,-8.5028,-8.5017,-8.4973,-8.5018,-8.5028,-8.4993,-8.5143,-8.5091,-8.5109,-8.5171,-8.5322,-8.5332,-8.5342,-8.5415,-8.5435,-8.5453,0,0,0,0,0,0,-8.4825,-8.4856,-8.4838,-8.4945,-8.4979,-8.5006,-8.5062,-8.5039,-8.5085,-8.5075,-8.5059,-8.5067,-8.5163,-8.5177,-8.5119,-8.5289,-8.5225,-8.5239,-8.5275,-8.5294,-8.531,-8.5302,-8.5051,0,0,0,0,0,-8.4853,-8.4914,-8.4937,-8.5029,-8.5048,-8.5053,-8.5086,-8.5075,-8.5109,-8.5122,-8.5138,-8.5171,-8.5226,-8.5262,-8.5313,-8.5426,-8.5431,-8.5478,-8.5493,-8.5506,-8.5516,-8.5577,-8.5597,-8.5379,-8.5378,-8.5378,0,0,-8.4909,-8.4934,-8.4972,-8.5044,-8.5069,-8.513,-8.5065,-8.5133,-8.5178,-8.5132,-8.5219,-8.5233,-8.5269,-8.5372,-8.5418,-8.5386,-8.5579,-8.5519,-8.5529,-8.5532,-8.5589,-8.561,-8.5628,-8.5385,-8.5384,-8.5383,0,0,-8.5042,-8.5069,-8.5148,-8.5176,-8.5216,-8.522,-8.524,-8.5272,-8.528,-8.5368,-8.5335,-8.5389,-8.5483,-8.551,-8.5536,-8.5687,-8.5656,-8.5704,-8.5783,-8.5842,-8.5859,-8.5875,-8.5926,-8.5945,-8.5715,-8.5716,-8.5716,0,-8.5106,-8.5199,-8.5191,-8.5263,-8.5295,-8.526,-8.534,-8.5367,-8.5421,-8.5444,-8.5409,-8.5529,-8.555,-8.5659,-8.5696,-8.5719,-8.574,-8.5697,-8.5858,-8.5873,-8.5887,-8.5936,-8.5955,-8.5721,-8.572,-8.572,-8.5719,0,-8.5275,-8.5341,-8.54,-8.5456,-8.5496,-8.5571,-8.5574,-8.5615,-8.5603,-8.561,-8.5701,-8.5727,-8.5783,-8.5809,-8.5797,-8.5917,-8.5896,-8.5861,-8.5795,-8.5913,-8.5958,-8.5977,-8.5729,-8.5727,-8.5725,-8.5724,0,0,-8.5446,-8.5501,-8.5522,-8.5548,-8.5592,-8.5642,-8.5717,-8.5774,-8.5808,-8.5849,-8.591,-8.5993,-8.5962,-8.5992,-8.5983,-8.6036,-8.6151,-8.5994,-8.5995,-8.6019,-8.6283,-8.6306,-8.6328,-8.6134,-8.6138,-8.6141,-8.6279,0,-8.5579,-8.571,-8.5707,-8.5828,-8.5888,-8.5859,-8.5924,-8.5958,-8.5969,-8.602,-8.6032,-8.609,-8.6045,-8.6063,-8.6115,-8.6126,-8.6203,-8.6117,-8.6188,-8.619,-8.6175,-8.6352,-8.6376,-8.6505,-8.6297,-8.63,-8.6302,0,-8.575,-8.5799,-8.5926,-8.5964,-8.5989,-8.6048,-8.61,-8.6152,-8.619,-8.6194,-8.6231,-8.6215,-8.629,-8.6229,-8.6332,-8.6273,-8.6303,-8.6314,-8.6319,-8.6321,-8.625,-8.6355,-8.6546,-8.6564,-8.633,-8.6328,-8.6326,0,-8.5859,-8.5956,-8.6045,-8.6069,-8.6115,-8.6157,-8.6178,-8.6214,-8.6249,-8.6296,-8.6319,-8.6374,-8.6403,-8.6445,-8.6445,-8.64,-8.6549,-8.6487,-8.6552,-8.6552,-8.658,-8.6577,-8.6774,-8.6607,-8.6607,-8.6606,-8.6606,0,-8.6005,-8.6083,-8.6095,-8.6149,-8.6236,-8.6234,-8.632,-8.6337,-8.637,-8.6426,-8.6406,-8.6459,-8.6458,-8.6512,-8.6513,-8.6597,-8.6611,-8.6615,-8.6613,-8.6614,-8.6613,-8.663,-8.6619,-8.6611,-8.661,-8.6609,-8.6608,0,-8.6137,-8.6149,-8.6244,-8.6282,-8.6294,-8.6356,-8.6389,-8.644,-8.6451,-8.6523,-8.654,-8.6556,-8.662,-8.6625,-8.6698,-8.6699,-8.68,-8.6791,-8.6787,-8.6784,-8.6847,-8.684,-8.7058,-8.7086,-8.6904,-8.6906,-8.6908,0,-8.6227,-8.6287,-8.6334,-8.6371,-8.6396,-8.6456,-8.6493,-8.6495,-8.6534,-8.6585,-8.663,-8.6693,-8.6741,-8.6844,-8.6861,-8.6917,-8.6907,-8.698,-8.6914,-8.6914,-8.6904,-8.6899,-8.6904,-8.699,-8.6992,-8.6994,-8.6995,0,-8.6385,-8.6389,-8.6444,-8.6502,-8.6548,-8.6593,-8.6635,-8.6667,-8.6674,-8.6719,-8.6785,-8.6823,-8.69,-8.696,-8.7017,-8.7037,-8.7017,-8.7017,-8.7034,-8.7033,-8.7027,-8.7028,-8.6817,-8.701,-8.7009,-8.7008,-8.7007,-8.7006,-8.6497,-8.6549,-8.6591,-8.6653,-8.6686,-8.6727,-8.6778,-8.6797,-8.6852,-8.6915,-8.6914,-8.6986,-8.7025,-8.7099,-8.7125,-8.7181,-8.7156,-8.7182,-8.7187,-8.7193,-8.7198,-8.7023,-8.7191,-8.7191,-8.7191,-8.719,-8.719,0,-8.6651,-8.6678,-8.6736,-8.6797,-8.6846,-8.6828,-8.6875,-8.6916,-8.6981,-8.7021,-8.7071,-8.7147,-8.7207,-8.7232,-8.7291,-8.7331,-8.7323,-8.7346,-8.7341,-8.7346,-8.7218,-8.7195,-8.7352,-8.7351,-8.7351,-8.7351,-8.7351,-8.7351,-8.6737,-8.6824,-8.6833,-8.6937,-8.6963,-8.7035,-8.7063,-8.7101,-8.7133,-8.7219,-8.727,-8.7287,-8.7321,-8.7383,-8.7438,-8.7444,-8.7465,-8.7491,-8.7492,-8.7371,-8.7355,-8.7339,-8.7317,-8.7497,-8.7497,-8.7615,-8.7616,-8.7617]},{"header":{"parameterUnit":"m.s-1","parameterCategory":1,"la1":30.2991,"la2":30.254,"lo1":-89.0895,"lo2":-89.0444,"dy":0.0017,"dx":0.0017,"nx":28,"ny":28,"refTime":"2024-04-27T09:00:00:Z","depth":0,"parameterNumber":3,"parameterNumberName":"V-component_of_WINDS"},"data":[0,0,0,0,0,0,0,0,0,0,0,0,0,0,0,0,0,0,0,0,0,0,0,0,0,0,0,0,0,0,0,0,0,0,0,0,0,0,0,0,0,0,0,0,0,0,0,0,0,0,0,0,0,0,0,0,0,0,4.3375,4.3376,0,4.3427,4.3428,4.3429,4.3475,4.3476,4.3476,4.3477,4.3525,4.3526,4.3527,0,0,0,0,0,0,0,0,0,0,0,0,0,4.3313,4.3314,4.3375,4.3376,4.3377,4.3427,4.3428,4.3429,4.3475,4.3476,4.3476,4.3477,4.3525,4.3526,4.3527,0,0,0,0,0,0,0,0,0,0,0,0,0,4.335,4.3315,4.3375,4.3406,4.3409,4.3427,4.3428,4.3429,4.3475,4.3476,4.3477,4.3477,4.3525,4.3526,4.3527,4.3517,0,0,4.3531,4.3531,0,0,0,0,0,0,0,0,4.3348,4.3352,4.3401,4.3404,4.3408,4.3446,4.3424,4.3458,4.3475,4.345,4.3477,4.3478,4.3498,4.3501,4.3509,4.352,4.3522,4.3531,4.3532,4.3532,4.3532,0,0,0,0,0,0,0,4.3345,4.335,4.3396,4.3401,4.3406,4.3416,4.3423,4.3431,4.3468,4.3452,4.3456,4.3461,4.35,4.3508,4.3511,4.3523,4.3531,4.3532,4.3533,4.3533,4.353,4.353,0,0,0,0,0,0,4.3339,4.3348,4.3394,4.3397,4.3379,4.3417,4.3424,4.3433,4.3468,4.3475,4.3461,4.3463,4.3506,4.3509,4.3512,4.3505,4.3532,4.3533,4.3534,4.3531,4.353,4.3529,0,0,0,0,0,0,4.3337,4.3342,4.3392,4.3374,4.3381,4.3417,4.3427,4.3433,4.3441,4.3475,4.3482,4.3462,4.3506,4.3511,4.3517,4.3507,4.3534,4.3535,4.3532,4.3531,4.353,4.3489,0,0,0,0,0,0,4.3335,4.3342,4.3338,4.3373,4.3382,4.3396,4.3426,4.3434,4.3444,4.3448,4.3478,4.3484,4.3507,4.3515,4.3518,4.3509,4.3536,4.3533,4.3531,4.353,4.3491,4.3486,4.3482,0,0,0,0,0,4.3333,4.3323,4.3338,4.3343,4.3379,4.3395,4.34,4.3429,4.3443,4.344,4.3462,4.3483,4.3508,4.3515,4.3519,4.351,4.3534,4.3532,4.353,4.3493,4.3487,4.3483,0,0,0,0,0,0,4.3284,4.3328,4.3345,4.3347,4.3367,4.3403,4.34,4.3421,4.3436,4.3439,4.3473,4.348,4.3482,4.3497,4.3504,4.3504,4.3524,4.3523,4.3494,4.3489,4.3485,4.3481,4.3537,0,0,0,0,0,4.3274,4.3284,4.3322,4.332,4.333,4.3363,4.3371,4.3392,4.3414,4.3422,4.3445,4.3464,4.3477,4.3484,4.3497,4.3494,4.3502,4.349,4.3486,4.3482,4.3481,4.3482,4.3478,4.3524,4.3524,4.3524,0,0,4.3251,4.3277,4.3281,4.3311,4.3329,4.3339,4.337,4.3378,4.3386,4.3423,4.3431,4.3448,4.3472,4.3474,4.3476,4.3486,4.347,4.348,4.3477,4.3477,4.348,4.3475,4.3472,4.3522,4.3523,4.3523,0,0,4.3217,4.3237,4.3239,4.3258,4.3286,4.3309,4.3309,4.3343,4.3357,4.3365,4.3394,4.3403,4.3424,4.344,4.3451,4.3427,4.3447,4.343,4.3406,4.3407,4.3404,4.3401,4.3393,4.3389,4.3428,4.3428,4.3428,0,4.3186,4.3203,4.3236,4.3245,4.3257,4.3294,4.3296,4.3311,4.3342,4.3349,4.3361,4.339,4.3408,4.3415,4.341,4.3417,4.3419,4.3426,4.3402,4.3399,4.3397,4.3389,4.3386,4.3426,4.3426,4.3426,4.3427,0,4.3164,4.3175,4.3173,4.3205,4.3217,4.3221,4.3255,4.3264,4.3284,4.3306,4.3315,4.3339,4.3359,4.3362,4.3381,4.3373,4.3379,4.3396,4.3416,4.339,4.3383,4.3381,4.3423,4.3424,4.3424,4.3425,0,0,4.3097,4.315,4.3149,4.3164,4.32,4.3209,4.3216,4.3237,4.3244,4.3264,4.3271,4.3289,4.3307,4.3319,4.334,4.3341,4.3322,4.3358,4.336,4.3351,4.3315,4.3302,4.3298,4.3336,4.3335,4.3335,4.3313,0,4.3069,4.3085,4.3117,4.3123,4.3134,4.3171,4.3177,4.3199,4.322,4.3233,4.3255,4.3268,4.3289,4.3298,4.33,4.3323,4.3315,4.3325,4.3342,4.3342,4.3334,4.3295,4.3281,4.3259,4.3311,4.3311,4.331,0,4.3037,4.3059,4.3066,4.3103,4.3109,4.3114,4.3138,4.315,4.3176,4.3192,4.3207,4.3232,4.3241,4.326,4.3273,4.328,4.3289,4.3302,4.3301,4.3304,4.3324,4.3296,4.3253,4.325,4.3307,4.3307,4.3307,0,4.2989,4.3019,4.3029,4.3041,4.3084,4.3087,4.3105,4.3132,4.3144,4.3165,4.3173,4.3193,4.3204,4.3219,4.3248,4.3259,4.3258,4.328,4.3271,4.327,4.3268,4.3268,4.3226,4.3274,4.3274,4.3274,4.3274,0,4.2954,4.2957,4.3008,4.3013,4.3019,4.3055,4.3059,4.308,4.3105,4.3115,4.3147,4.3156,4.3194,4.3207,4.323,4.3238,4.3242,4.3255,4.3261,4.3252,4.325,4.3257,4.326,4.3273,4.3274,4.3274,4.3274,0,4.2901,4.2935,4.2947,4.2989,4.2999,4.3001,4.3036,4.3043,4.3067,4.308,4.3084,4.3122,4.3139,4.317,4.3195,4.3211,4.3214,4.3224,4.3206,4.3209,4.3199,4.32,4.316,4.3157,4.3207,4.3206,4.3206,0,4.2876,4.288,4.2923,4.2933,4.2951,4.2966,4.2979,4.3016,4.3028,4.306,4.3063,4.3083,4.3101,4.3127,4.3155,4.3175,4.3186,4.3171,4.3189,4.3181,4.3187,4.3186,4.3187,4.3167,4.3166,4.3165,4.3165,0,4.2829,4.2847,4.2865,4.289,4.2906,4.2927,4.2949,4.2955,4.2997,4.3009,4.3029,4.3043,4.307,4.309,4.3115,4.3132,4.3155,4.3159,4.3159,4.3149,4.3139,4.3145,4.3195,4.316,4.316,4.3161,4.3161,4.3161,4.279,4.2796,4.2828,4.2848,4.287,4.2891,4.29,4.2926,4.2944,4.297,4.2991,4.3009,4.3037,4.3073,4.3089,4.3103,4.3114,4.3112,4.3112,4.3111,4.3108,4.3137,4.3108,4.3108,4.3108,4.3108,4.3108,0,4.2745,4.2768,4.2787,4.2819,4.2835,4.2858,4.2885,4.2896,4.2913,4.2938,4.2956,4.2979,4.2998,4.303,4.3052,4.3057,4.3069,4.3062,4.3062,4.3066,4.3096,4.3095,4.3053,4.3053,4.3053,4.3053,4.3053,4.3053,4.2723,4.2736,4.2757,4.2781,4.2804,4.2823,4.2837,4.2856,4.2877,4.2902,4.292,4.2941,4.2968,4.2994,4.3013,4.3022,4.3028,4.3018,4.303,4.3058,4.3063,4.3068,4.3067,4.3019,4.3019,4.2998,4.2998,4.2998]}]]